Location: Ellerstadt
(49.4644°N, 8.2615°E)
Time: 07:18:31
(UTC+00:00)

SPOT 3 Rocket - Pass Details

Date: 21 June 2021
Orbit: 779 x 794 km, 98.7° (Epoch: 03 August)

Event Time Altitude Azimuth Distance (km) Brightness Sun altitude
Exits shadow 20:38:17 - 183° (S) 3,201 6.3 -7.8°
Reaches altitude 10° 20:40:32 10° 189° (S) 2,339 5.6 -8.1°
Maximum altitude 20:45:27 44° 261° (W) 1,083 4.6 -8.5°
Drops below altitude 10° 20:50:26 10° 334° (NNW) 2,366 7.6 -9.0°
Sets 20:52:54 0° 341° (NNW) 3,302 8.5 -9.3°
